period_start,C,m1,H,J0,J1,J2,J3,J4,J5,JA,JB,JC,JD,JJ,JK,JN,#
2017-04-01 00:00:27,0.24,5.07,0.00,24.45,27.56,30.97,14.28,49.39,1005.85,2026.00,1940.07,2010.55,2285.17,599.99,586.87,48.07,0000 0000 0000 0000 000000
2017-04-01 00:05:29,0.22,5.08,0.00,24.58,27.57,31.02,14.28,49.40,1005.75,2026.00,1937.61,2008.86,2283.33,600.25,586.79,48.12,0000 0000 0000 0000 000000
2017-04-01 00:10:30,0.20,5.09,0.00,24.74,27.57,31.03,14.33,49.46,1005.63,2026.00,1935.31,2007.41,2281.53,599.94,586.10,48.17,0000 0000 0000 0000 000000
2017-04-01 00:15:31,0.23,5.10,0.00,24.69,27.59,31.05,14.26,49.53,1005.43,2026.00,1932.98,2005.74,2279.73,600.47,586.63,48.22,0000 0000 0000 0000 000000
2017-04-01 00:20:32,0.20,5.11,0.00,24.66,27.60,31.10,14.32,49.47,1005.39,2026.00,1930.68,2004.17,2277.90,599.85,586.06,48.28,0000 0000 0000 0000 000000
2017-04-01 00:25:33,0.21,5.12,0.00,24.92,27.60,31.04,14.23,49.40,1005.39,2026.00,1928.42,2002.65,2276.22,600.07,585.81,48.33,0000 0000 0000 0000 000000
2017-04-01 00:30:34,0.22,5.13,0.00,24.88,27.61,30.93,14.25,49.25,1005.39,2026.00,1926.07,2001.08,2274.42,599.60,585.35,48.38,0000 0000 0000 0000 000000
2017-04-01 00:35:36,0.23,5.14,0.00,24.54,27.62,30.88,14.27,49.37,1005.39,2026.00,1923.50,1999.49,2272.53,600.13,586.70,48.43,0000 0000 0000 0000 000000
2017-04-01 00:40:37,0.23,5.16,0.00,24.58,27.62,30.94,14.26,49.48,1005.38,2025.99,1921.04,1997.84,2270.64,600.34,586.81,48.48,0000 0000 0000 0000 000000
2017-04-01 00:45:38,0.21,5.17,0.00,24.78,27.62,31.01,14.28,49.36,1005.25,2025.98,1918.79,1996.28,2268.81,600.29,586.10,48.53,0000 0000 0000 0000 000000
2017-04-01 00:50:40,0.22,5.18,0.00,24.79,27.62,31.06,14.27,49.32,1004.96,2025.99,1916.48,1994.72,2267.07,599.82,585.44,48.58,0000 0000 0000 0000 000000
2017-04-01 00:55:41,0.21,5.19,0.00,24.88,27.62,31.08,14.26,49.44,1004.91,2025.98,1914.12,1993.20,2265.29,599.81,585.33,48.63,0000 0000 0000 0000 000000
2017-04-01 01:00:42,0.22,5.20,0.00,25.01,27.63,30.92,14.27,49.33,1004.90,2025.99,1911.86,1991.64,2263.47,600.57,585.73,48.68,0000 0000 0000 0000 000000
2017-04-01 01:05:43,0.22,5.21,0.00,24.65,27.64,30.82,14.16,49.42,1004.90,2025.97,1909.44,1989.95,2261.68,599.74,585.63,48.73,0000 0000 0000 0000 000000
2017-04-01 01:10:45,0.22,5.22,0.00,24.56,27.62,30.93,14.23,49.52,1004.90,2025.96,1907.09,1988.48,2259.85,599.95,586.01,48.78,0000 0000 0000 0000 000000
2017-04-01 01:15:46,0.21,5.24,0.00,24.80,27.63,30.99,14.22,49.46,1004.89,2025.97,1904.87,1986.92,2258.16,600.02,585.58,48.83,0000 0000 0000 0000 000000
2017-04-01 01:20:48,0.21,5.25,0.00,24.90,27.65,30.97,14.28,49.62,1004.65,2025.97,1902.62,1985.43,2256.43,599.79,584.99,48.88,0000 0000 0000 0000 000000
2017-04-01 01:25:49,0.21,5.26,0.00,25.04,27.65,30.90,14.21,49.58,1004.44,2025.94,1900.30,1983.95,2254.68,600.11,585.08,48.93,0000 0000 0000 0000 000000
2017-04-01 01:30:51,0.22,5.27,0.00,24.85,27.65,30.82,14.26,49.48,1004.42,2025.89,1897.88,1982.50,2252.83,600.10,585.26,48.98,0000 0000 0000 0000 000000
2017-04-01 01:35:52,0.23,5.28,0.00,24.61,27.65,30.83,14.24,49.58,1004.42,2025.85,1895.39,1980.86,2251.01,600.16,585.81,49.03,0000 0000 0000 0000 000000
2017-04-01 01:40:53,0.21,5.29,0.00,24.79,27.63,30.92,14.18,49.47,1004.42,2025.89,1893.09,1979.41,2249.31,600.00,585.43,49.08,0000 0000 0000 0000 000000
2017-04-01 01:45:54,0.19,5.30,0.00,24.95,27.63,30.92,14.22,49.53,1004.41,2025.74,1890.82,1977.80,2247.53,599.94,584.97,49.14,0000 0000 0000 0000 000000
2017-04-01 01:50:55,0.23,5.32,0.00,25.07,27.63,30.87,14.23,49.66,1004.41,2025.82,1888.54,1976.39,2245.74,600.27,584.99,49.19,0000 0000 0000 0000 000000
2017-04-01 01:55:56,0.20,5.33,0.00,24.96,27.63,30.77,14.26,49.63,1004.41,2025.75,1886.34,1974.78,2244.08,600.14,584.98,49.24,0000 0000 0000 0000 000000
2017-04-01 02:00:58,0.20,5.34,0.00,24.66,27.62,30.71,14.26,49.62,1004.41,2025.51,1883.88,1973.23,2242.19,599.98,585.62,49.29,0000 0000 0000 0000 000000
2017-04-01 02:05:59,0.25,5.35,0.00,24.79,27.62,30.79,14.22,49.58,1004.22,2025.68,1881.45,1971.68,2240.48,599.83,585.12,49.34,0000 0000 0000 0000 000000
2017-04-01 02:11:01,0.21,5.36,0.00,24.97,27.62,30.83,14.12,49.51,1003.97,2025.81,1879.31,1970.23,2238.88,599.77,584.44,49.39,0000 0000 0000 0000 000000
2017-04-01 02:16:02,0.22,5.37,0.00,25.07,27.62,30.76,14.17,49.48,1003.95,2025.85,1877.05,1968.71,2237.28,599.94,584.55,49.44,0000 0000 0000 0000 000000
2017-04-01 02:21:03,0.23,5.38,0.00,24.90,27.61,30.72,14.12,49.50,1003.92,2025.92,1874.68,1967.24,2235.55,599.94,584.77,49.49,0000 0000 0000 0000 000000
2017-04-01 02:26:05,0.22,5.39,0.00,24.99,27.60,30.70,14.21,49.52,1003.92,2025.90,1872.43,1965.64,2233.75,600.04,584.77,49.54,0000 0000 0000 0000 000000
2017-04-01 02:31:06,0.21,5.41,0.00,25.09,27.60,30.73,14.16,49.53,1003.91,2025.95,1870.17,1964.20,2232.06,600.06,584.44,49.59,0000 0000 0000 0000 000000
2017-04-01 02:36:07,0.23,5.42,0.00,25.11,27.60,30.73,14.30,49.53,1003.87,2025.94,1867.85,1962.64,2230.32,600.24,584.64,49.64,0000 0000 0000 0000 000000
2017-04-01 02:41:09,0.21,5.43,0.00,24.96,27.60,30.69,14.12,49.52,1003.58,2025.93,1865.50,1961.06,2228.55,599.64,584.21,49.69,0000 0000 0000 0000 000000
2017-04-01 02:46:10,0.23,5.44,0.00,24.91,27.59,30.72,14.19,49.62,1003.45,2025.95,1863.24,1959.56,2226.82,600.14,584.67,49.74,0000 0000 0000 0000 000000
2017-04-01 02:51:11,0.22,5.45,0.00,25.05,27.58,30.71,14.26,49.55,1003.44,2025.95,1860.99,1958.02,2225.06,600.17,584.42,49.79,0000 0000 0000 0000 000000
2017-04-01 02:56:12,0.22,5.46,0.00,25.05,27.57,30.71,14.21,49.62,1003.44,2025.97,1858.71,1956.57,2223.39,600.27,584.52,49.84,0000 0000 0000 0000 000000
2017-04-01 03:01:14,0.21,5.47,0.00,25.08,27.57,30.68,13.99,49.61,1003.43,2025.98,1856.62,1955.05,2221.69,599.60,583.86,49.89,0000 0000 0000 0000 000000
2017-04-01 03:06:15,0.20,5.48,0.00,25.04,27.57,30.65,14.13,49.63,1003.42,2025.98,1854.66,1953.57,2220.02,599.92,583.93,49.94,0000 0000 0000 0000 000000
2017-04-01 03:11:17,0.20,5.50,0.00,24.92,27.57,30.63,14.23,49.85,1003.36,2025.99,1852.40,1952.13,2218.29,600.12,584.59,50.00,0000 0000 0000 0000 000000
2017-04-01 03:16:18,0.26,5.51,0.00,25.03,27.57,30.65,14.11,49.70,1003.17,2025.99,1850.04,1950.54,2216.53,599.79,583.85,50.05,0000 0000 0000 0000 000000
2017-04-01 03:21:19,0.21,5.52,0.00,25.12,27.56,30.62,14.16,49.67,1003.07,2025.99,1847.77,1948.99,2214.77,599.95,583.87,50.10,0000 0000 0000 0000 000000
2017-04-01 03:26:20,0.21,5.53,0.00,25.10,27.55,30.60,14.13,49.69,1002.97,2025.99,1845.62,1947.53,2213.13,600.04,583.84,50.15,0000 0000 0000 0000 000000
2017-04-01 03:31:21,0.21,5.54,0.00,24.97,27.55,30.62,14.21,49.82,1002.94,2025.97,1843.46,1945.99,2211.46,599.90,584.09,50.20,0000 0000 0000 0000 000000
2017-04-01 03:36:22,0.22,5.55,0.00,25.00,27.55,30.59,14.22,49.88,1002.94,2025.98,1841.32,1944.54,2209.72,600.03,584.10,50.25,0000 0000 0000 0000 000000
2017-04-01 03:41:24,0.22,5.56,0.00,25.07,27.55,30.59,14.26,49.73,1002.92,2025.99,1839.04,1943.14,2208.06,600.40,584.22,50.30,0000 0000 0000 0000 000000
2017-04-01 03:46:25,0.23,5.57,0.00,24.88,27.54,30.56,14.10,49.70,1002.78,2025.99,1836.75,1941.60,2206.31,599.91,584.19,50.35,0000 0000 0000 0000 000000
2017-04-01 03:51:26,0.21,5.59,0.00,24.96,27.52,30.53,14.15,49.76,1002.51,2025.99,1834.39,1940.06,2204.56,599.79,583.63,50.40,0000 0000 0000 0000 000000
2017-04-01 03:56:27,0.22,5.60,0.00,25.10,27.52,30.54,14.15,49.72,1002.46,2025.99,1832.34,1938.62,2202.93,599.83,583.52,50.45,0000 0000 0000 0000 000000
2017-04-01 04:01:28,0.20,5.61,0.00,25.07,27.52,30.53,14.14,49.73,1002.46,2025.98,1830.25,1937.14,2201.29,599.79,583.44,50.50,0000 0000 0000 0000 000000
2017-04-01 04:06:29,0.24,5.62,0.00,24.89,27.51,30.49,14.23,49.77,1002.45,2025.99,1828.00,1935.70,2199.63,600.35,584.28,50.55,0000 0000 0000 0000 000000
2017-04-01 04:11:31,0.21,5.63,0.00,24.95,27.50,30.49,14.17,49.77,1002.45,2025.99,1825.70,1934.30,2197.91,600.25,584.06,50.60,0000 0000 0000 0000 000000
2017-04-01 04:16:32,0.22,5.64,0.00,25.09,27.50,30.51,14.20,49.62,1002.40,2025.99,1823.39,1932.79,2196.21,599.97,583.43,50.65,0000 0000 0000 0000 000000
2017-04-01 04:21:33,0.23,5.65,0.00,24.89,27.50,30.48,14.26,49.68,1002.38,2025.99,1821.15,1931.37,2194.58,600.03,583.98,50.70,0000 0000 0000 0000 000000
2017-04-01 04:26:34,0.22,5.67,0.00,24.85,27.47,30.47,14.24,49.65,1002.33,2025.99,1818.93,1929.86,2192.85,600.07,584.16,50.75,0000 0000 0000 0000 000000
2017-04-01 04:31:36,0.20,5.68,0.00,25.03,27.47,30.47,14.14,49.53,1002.03,2025.99,1817.04,1928.55,2191.35,600.04,583.45,50.80,0000 0000 0000 0000 000000
2017-04-01 04:36:37,0.20,5.69,0.00,25.14,27.47,30.50,14.12,49.53,1001.99,2026.01,1815.02,1927.17,2189.76,600.11,583.35,50.85,0000 0000 0000 0000 000000
2017-04-01 04:41:38,0.23,5.70,0.00,24.91,27.47,30.47,14.16,49.62,1001.98,2026.01,1812.77,1925.69,2188.11,599.86,583.54,50.90,0000 0000 0000 0000 000000
2017-04-01 04:46:39,0.21,5.71,0.00,24.72,27.45,30.40,14.22,49.63,1001.97,2026.02,1810.49,1924.28,2186.49,600.25,584.33,50.96,0000 0000 0000 0000 000000
2017-04-01 04:51:41,0.22,5.72,0.00,24.92,27.45,30.42,14.18,49.59,1001.97,2026.03,1808.46,1922.81,2184.83,599.94,583.64,51.01,0000 0000 0000 0000 000000
2017-04-01 04:56:42,0.20,5.73,0.00,25.12,27.45,30.46,14.27,49.60,1001.97,2026.04,1806.50,1921.47,2183.29,600.08,583.32,51.06,0000 0000 0000 0000 000000
2017-04-01 05:01:44,0.21,5.74,0.00,25.02,27.44,30.44,14.19,49.59,1001.97,2026.04,1804.38,1920.02,2181.62,600.01,583.47,51.11,0000 0000 0000 0000 000000
2017-04-01 05:06:45,0.24,5.75,0.00,24.74,27.42,30.39,14.20,49.70,1001.90,2026.03,1802.06,1918.62,2179.93,600.09,584.05,51.16,0000 0000 0000 0000 000000
2017-04-01 05:11:47,0.21,5.77,0.00,24.82,27.42,30.38,14.24,49.72,1001.72,2026.05,1799.86,1917.22,2178.35,600.20,583.88,51.21,0000 0000 0000 0000 000000
2017-04-01 05:16:48,0.23,5.77,0.00,25.08,27.42,30.43,14.15,49.59,1001.59,2026.13,1797.85,1915.85,2176.74,599.91,582.99,51.26,0000 0000 0000 0000 000000
2017-04-01 05:21:49,0.20,5.79,0.00,25.19,27.42,30.46,14.14,49.52,1001.50,2026.19,1795.81,1914.49,2175.18,600.06,582.81,51.31,0000 0000 0000 0000 000000
2017-04-01 05:26:50,0.23,5.80,0.00,24.92,27.41,30.42,14.15,49.67,1001.48,2026.39,1793.73,1913.11,2173.73,599.89,583.30,51.36,0000 0000 0000 0000 000000
2017-04-01 05:31:51,0.21,5.81,0.00,24.76,27.40,30.37,14.22,49.74,1001.48,2026.35,1791.73,1911.73,2172.12,599.87,583.59,51.41,0000 0000 0000 0000 000000
2017-04-01 05:36:53,0.21,5.82,0.00,24.95,27.40,30.39,14.15,49.61,1001.48,2026.34,1789.71,1910.37,2170.54,600.05,583.39,51.46,0000 0000 0000 0000 000000
2017-04-01 05:41:54,0.21,5.83,0.00,25.15,27.40,30.44,14.13,49.49,1001.31,2026.35,1787.71,1908.93,2168.91,599.75,582.64,51.51,0000 0000 0000 0000 000000
2017-04-01 05:46:55,0.21,5.84,0.00,25.04,27.40,30.45,14.16,49.49,1001.01,2026.38,1785.64,1907.55,2167.34,600.00,582.73,51.56,0000 0000 0000 0000 000000
2017-04-01 05:51:57,0.24,5.86,0.00,24.77,27.40,30.39,14.16,49.67,1001.00,2026.38,1783.37,1906.07,2165.67,600.10,583.56,51.61,0000 0000 0000 0000 000000
2017-04-01 05:56:58,0.23,5.87,0.00,24.83,27.37,30.38,14.13,49.56,1000.99,2026.48,1781.19,1904.71,2164.05,599.95,583.32,51.66,0000 0000 0000 0000 000000
2017-04-01 06:01:59,0.20,5.88,0.00,25.11,27.37,30.41,14.06,49.49,1000.99,2026.41,1779.09,1903.30,2162.46,599.57,582.32,51.71,0000 0000 0000 0000 000000
2017-04-01 06:07:00,0.24,5.89,0.00,25.16,27.38,30.46,14.13,49.47,1000.99,2026.56,1776.99,1901.90,2160.84,599.86,582.53,51.76,0000 0000 0000 0000 000000
2017-04-01 06:12:01,0.22,5.90,0.00,24.89,27.38,30.42,14.06,49.48,1000.95,2026.66,1774.72,1900.53,2159.25,600.00,583.11,51.82,0000 0000 0000 0000 000000
2017-04-01 06:17:03,0.22,5.91,0.00,24.71,27.37,30.37,14.15,49.50,1000.73,2026.58,1772.51,1899.07,2157.55,599.90,583.34,51.87,0000 0000 0000 0000 000000
2017-04-01 06:22:04,0.24,5.92,0.00,24.89,27.37,30.40,14.22,49.56,1000.52,2026.73,1770.48,1897.70,2155.97,600.40,583.31,51.92,0000 0000 0000 0000 000000
2017-04-01 06:27:05,0.22,5.94,0.00,25.16,27.37,30.42,14.04,49.42,1000.52,2026.89,1768.56,1896.40,2154.48,599.76,581.94,51.97,0000 0000 0000 0000 000000
2017-04-01 06:32:07,0.22,5.95,0.00,25.14,27.37,30.44,14.11,49.48,1000.51,2026.93,1766.59,1894.94,2152.89,599.59,581.89,52.02,0000 0000 0000 0000 000000
2017-04-01 06:37:08,0.22,5.96,0.00,24.88,27.37,30.38,14.06,49.51,1000.50,2026.93,1764.39,1893.58,2151.31,599.78,582.67,52.07,0000 0000 0000 0000 000000
2017-04-01 06:42:09,0.21,5.97,0.00,24.75,27.37,30.35,14.18,49.60,1000.50,2026.96,1762.22,1892.25,2149.71,600.05,583.10,52.12,0000 0000 0000 0000 000000
2017-04-01 06:47:10,0.20,5.98,0.00,24.94,27.37,30.37,14.18,49.53,1000.50,2026.96,1760.30,1890.82,2148.16,600.03,582.79,52.17,0000 0000 0000 0000 000000
2017-04-01 06:52:11,0.22,5.99,0.00,25.18,27.37,30.42,14.16,49.39,1000.50,2026.95,1758.34,1889.49,2146.63,599.85,582.05,52.22,0000 0000 0000 0000 000000
2017-04-01 06:57:13,0.18,6.00,0.00,25.05,27.37,30.43,14.20,49.42,1000.42,2026.94,1756.50,1888.19,2145.12,600.07,582.58,52.27,0000 0000 0000 0000 000000
2017-04-01 07:02:14,0.22,6.01,0.00,24.84,27.37,30.37,14.19,49.51,1000.24,2026.90,1754.54,1886.78,2143.56,600.00,582.76,52.32,0000 0000 0000 0000 000000
2017-04-01 07:07:15,0.20,6.02,0.00,24.96,27.37,30.39,14.16,49.52,1000.14,2026.89,1752.64,1885.46,2141.98,600.02,582.51,52.37,0000 0000 0000 0000 000000
2017-04-01 07:12:17,0.18,6.03,0.00,25.20,27.37,30.44,14.10,49.39,1000.06,2026.80,1750.74,1884.10,2140.52,599.66,581.56,52.42,0000 0000 0000 0000 000000
2017-04-01 07:17:18,0.22,6.04,0.00,25.07,27.37,30.44,14.12,49.44,1000.04,2026.62,1748.66,1882.68,2138.87,599.89,582.13,52.47,0000 0000 0000 0000 000000
2017-04-01 07:22:19,0.16,6.05,0.00,24.81,27.37,30.40,14.18,49.46,1000.02,2026.29,1746.51,1881.36,2137.33,600.05,582.88,52.52,0000 0000 0000 0000 000000
2017-04-01 07:27:20,0.22,6.06,0.00,24.79,27.37,30.38,14.20,49.48,1000.02,2026.34,1744.55,1880.03,2135.76,600.42,583.27,52.57,0000 0000 0000 0000 000000
2017-04-01 07:32:22,0.23,6.08,0.00,25.06,27.37,30.40,14.16,49.43,1000.02,2026.50,1742.65,1878.73,2134.34,599.90,582.21,52.62,0000 0000 0000 0000 000000
2017-04-01 07:37:23,0.23,6.09,0.00,25.26,27.38,30.42,14.08,49.38,1000.01,2026.66,1740.81,1877.47,2132.85,599.83,581.64,52.67,0000 0000 0000 0000 000000
2017-04-01 07:42:25,0.15,6.10,0.00,25.03,27.39,30.41,14.15,49.44,1000.01,2026.45,1738.88,1876.13,2131.36,600.22,582.50,52.73,0000 0000 0000 0000 000000
2017-04-01 07:47:26,0.23,6.11,0.00,24.80,27.39,30.36,14.09,49.43,1000.01,2026.42,1736.84,1874.79,2129.84,599.69,582.48,52.78,0000 0000 0000 0000 000000
2017-04-01 07:52:27,0.19,6.12,0.00,24.87,27.38,30.36,14.12,49.54,999.98,2026.40,1734.82,1873.51,2128.39,600.14,582.70,52.83,0000 0000 0000 0000 000000
2017-04-01 07:57:28,0.20,6.13,0.00,25.17,27.39,30.41,13.98,49.36,999.92,2026.38,1733.03,1872.26,2126.85,599.69,581.67,52.88,0000 0000 0000 0000 000000
2017-04-01 08:02:29,0.22,6.14,0.00,25.14,27.40,30.40,14.20,49.42,999.82,2026.60,1731.20,1870.95,2125.50,600.04,582.02,52.93,0000 0000 0000 0000 000000
2017-04-01 08:07:30,0.17,6.15,0.00,24.86,27.40,30.35,14.01,49.42,999.79,2026.43,1729.37,1869.65,2123.95,599.44,581.98,52.98,0000 0000 0000 0000 000000
2017-04-01 08:12:32,0.21,6.16,0.00,24.81,27.40,30.33,14.14,49.45,999.63,2026.25,1727.59,1868.42,2122.53,600.10,582.64,53.03,0000 0000 0000 0000 000000
2017-04-01 08:17:33,0.15,6.17,0.00,25.06,27.40,30.38,14.20,49.44,999.57,2026.19,1725.91,1867.16,2121.09,600.08,582.07,53.08,0000 0000 0000 0000 000000
2017-04-01 08:22:34,0.20,6.18,0.00,25.28,27.40,30.43,14.15,49.37,999.54,2026.17,1724.09,1865.87,2119.66,599.98,581.61,53.13,0000 0000 0000 0000 000000
2017-04-01 08:27:35,0.20,6.19,0.00,25.04,27.40,30.39,14.14,49.43,999.53,2026.06,1722.25,1864.60,2118.20,600.19,582.24,53.18,0000 0000 0000 0000 000000
2017-04-01 08:32:36,0.20,6.20,0.00,24.84,27.40,30.35,14.08,49.49,999.53,2026.02,1720.30,1863.38,2116.73,600.27,582.67,53.23,0000 0000 0000 0000 000000
2017-04-01 08:37:38,0.18,6.21,0.00,24.89,27.40,30.35,14.13,49.53,999.53,2026.02,1718.47,1862.17,2115.40,599.82,582.21,53.28,0000 0000 0000 0000 000000
2017-04-01 08:42:39,0.20,6.22,0.00,25.12,27.40,30.39,14.02,49.44,999.53,2026.03,1716.65,1860.91,2113.95,599.80,581.73,53.33,0000 0000 0000 0000 000000
2017-04-01 08:47:40,0.21,6.23,0.00,25.09,27.40,30.39,14.18,49.45,999.53,2026.04,1714.80,1859.75,2112.60,600.13,582.07,53.38,0000 0000 0000 0000 000000
2017-04-01 08:52:41,0.19,6.24,0.00,24.85,27.40,30.35,14.20,49.51,999.53,2026.04,1712.87,1858.58,2111.20,600.41,582.68,53.43,0000 0000 0000 0000 000000
2017-04-01 08:57:43,0.18,6.25,0.00,24.85,27.40,30.35,14.15,49.47,999.53,2026.04,1711.13,1857.37,2109.99,600.06,582.42,53.48,0000 0000 0000 0000 000000
2017-04-01 09:02:44,0.17,6.26,0.00,25.10,27.39,30.38,14.13,49.46,999.53,2026.03,1709.66,1856.27,2108.75,599.82,581.72,53.53,0000 0000 0000 0000 000000
2017-04-01 09:07:45,0.16,6.27,0.00,25.14,27.40,30.41,14.09,49.50,999.53,2026.00,1708.10,1855.17,2107.51,599.91,581.75,53.58,0000 0000 0000 0000 000000
2017-04-01 09:12:46,0.17,6.27,0.00,24.92,27.39,30.37,14.15,49.48,999.53,2026.01,1706.53,1854.22,2106.25,599.90,582.15,53.64,0000 0000 0000 0000 000000
2017-04-01 09:17:48,0.18,6.28,0.00,24.80,27.38,30.34,14.17,49.52,999.51,2026.02,1704.78,1853.12,2104.95,600.17,582.68,53.69,0000 0000 0000 0000 000000
2017-04-01 09:22:49,0.22,6.30,0.00,24.96,27.37,30.35,14.15,49.51,999.50,2026.05,1702.58,1852.03,2103.63,600.14,582.29,53.74,0000 0000 0000 0000 000000
2017-04-01 09:27:50,0.19,6.30,0.00,25.21,27.37,30.39,14.05,49.43,999.49,2026.04,1700.83,1850.85,2102.29,599.55,581.29,53.79,0000 0000 0000 0000 000000
2017-04-01 09:32:52,0.19,6.31,0.00,25.05,27.37,30.36,14.11,49.48,999.52,2026.04,1699.14,1849.66,2100.94,599.88,581.84,53.84,0000 0000 0000 0000 000000
2017-04-01 09:37:53,0.20,6.32,0.00,24.83,27.37,30.34,14.20,49.51,999.46,2026.03,1697.32,1848.58,2099.64,600.44,582.85,53.89,0000 0000 0000 0000 000000
2017-04-01 09:42:54,0.19,6.33,0.00,24.83,27.37,30.33,14.20,49.56,999.43,2026.03,1695.55,1847.45,2098.32,600.12,582.49,53.94,0000 0000 0000 0000 000000
2017-04-01 09:47:55,0.17,6.34,0.00,25.05,27.37,30.35,14.17,49.50,999.52,2026.04,1693.91,1846.29,2097.01,600.30,582.44,53.99,0000 0000 0000 0000 000000
2017-04-01 09:52:56,0.19,6.35,0.00,25.27,27.37,30.40,14.01,49.34,999.53,2026.03,1692.24,1845.19,2095.73,599.84,581.41,54.04,0000 0000 0000 0000 000000
2017-04-01 09:57:58,0.18,6.36,0.00,25.02,27.37,30.37,14.13,49.52,999.52,2026.03,1690.44,1844.05,2094.49,600.08,582.08,54.09,0000 0000 0000 0000 000000
2017-04-01 10:02:59,0.19,6.37,0.00,24.83,27.36,30.34,14.13,49.47,999.40,2026.05,1688.74,1842.96,2093.23,599.92,582.26,54.14,0000 0000 0000 0000 000000
2017-04-01 10:08:00,0.20,6.38,0.00,24.82,27.35,30.32,14.10,49.48,999.09,2026.04,1686.88,1841.82,2091.84,599.76,581.97,54.19,0000 0000 0000 0000 000000
2017-04-01 10:13:01,0.18,6.39,0.00,24.98,27.35,30.34,14.04,49.42,999.05,2026.06,1685.37,1840.72,2090.60,599.86,581.70,54.24,0000 0000 0000 0000 000000
2017-04-01 10:18:03,0.20,6.40,0.00,25.22,27.35,30.38,14.13,49.38,999.05,2026.13,1683.54,1839.70,2089.36,600.02,581.37,54.29,0000 0000 0000 0000 000000
2017-04-01 10:23:04,0.19,6.41,0.00,25.00,27.35,30.37,14.16,49.46,999.07,2026.19,1681.87,1838.57,2088.11,599.94,581.84,54.34,0000 0000 0000 0000 000000
2017-04-01 10:28:05,0.19,6.42,0.00,24.80,27.35,30.34,14.14,49.48,999.06,2026.16,1680.10,1837.47,2086.79,599.96,582.06,54.39,0000 0000 0000 0000 000000
2017-04-01 10:33:06,0.19,6.43,0.00,24.81,27.35,30.32,14.16,49.48,999.07,2026.22,1678.44,1836.40,2085.56,600.05,582.28,54.44,0000 0000 0000 0000 000000
2017-04-01 10:38:08,0.15,6.44,0.00,24.99,27.35,30.33,14.15,49.50,999.04,2026.14,1676.86,1835.28,2084.32,599.97,581.69,54.50,0000 0000 0000 0000 000000
2017-04-01 10:43:09,0.19,6.45,0.00,25.27,27.35,30.37,14.09,49.44,999.04,2026.32,1675.35,1834.21,2083.13,599.80,581.14,54.55,0000 0000 0000 0000 000000
2017-04-01 10:48:10,0.18,6.46,0.00,25.15,27.35,30.38,14.10,49.48,999.05,2026.34,1673.66,1833.14,2081.85,599.88,581.42,54.60,0000 0000 0000 0000 000000
2017-04-01 10:53:11,0.21,6.47,0.00,24.87,27.35,30.34,14.03,49.45,999.05,2026.45,1672.02,1832.07,2080.65,599.91,582.01,54.65,0000 0000 0000 0000 000000
2017-04-01 10:58:12,0.16,6.48,0.00,24.82,27.33,30.33,14.22,49.51,999.06,2026.49,1670.38,1831.04,2079.45,600.14,582.37,54.70,0000 0000 0000 0000 000000
2017-04-01 11:03:14,0.20,6.49,0.00,25.00,27.32,30.36,14.17,49.39,999.08,2026.56,1668.71,1829.97,2078.19,600.24,582.03,54.75,0000 0000 0000 0000 000000
2017-04-01 11:08:15,0.18,6.50,0.00,25.18,27.32,30.39,14.09,49.38,999.07,2026.65,1667.09,1828.95,2076.99,599.85,581.30,54.80,0000 0000 0000 0000 000000
2017-04-01 11:13:16,0.19,6.51,0.00,24.95,27.32,30.36,14.11,49.43,999.15,2026.71,1665.55,1827.90,2075.81,599.97,581.92,54.85,0000 0000 0000 0000 000000
2017-04-01 11:18:17,0.20,6.52,0.00,24.81,27.32,30.32,14.14,49.49,999.31,2026.86,1663.88,1826.90,2074.65,599.94,582.31,54.90,0000 0000 0000 0000 000000
2017-04-01 11:23:18,0.14,6.53,0.00,24.93,27.32,30.33,14.15,49.46,999.42,2026.82,1662.43,1825.88,2073.47,599.68,581.86,54.95,0000 0000 0000 0000 000000
2017-04-01 11:28:19,0.18,6.53,0.00,25.16,27.32,30.34,14.03,49.42,999.37,2026.76,1660.85,1824.86,2072.31,599.91,581.59,55.00,0000 0000 0000 0000 000000
2017-04-01 11:33:20,0.15,6.54,0.00,25.00,27.32,30.35,14.13,49.49,999.32,2026.72,1659.40,1823.82,2071.14,600.14,582.22,55.05,0000 0000 0000 0000 000000
2017-04-01 11:38:21,0.16,6.55,0.00,24.80,27.31,30.31,14.23,49.54,999.29,2026.80,1657.89,1822.86,2070.02,599.93,582.19,55.10,0000 0000 0000 0000 000000
2017-04-01 11:43:22,0.17,6.56,0.00,24.83,27.30,30.32,14.11,49.57,999.19,2026.78,1656.40,1821.83,2068.86,599.91,582.11,55.15,0000 0000 0000 0000 000000
2017-04-01 11:48:24,0.19,6.57,0.00,25.13,27.30,30.36,14.16,49.52,999.05,2026.79,1654.81,1820.87,2067.69,599.99,581.50,55.20,0000 0000 0000 0000 000000
2017-04-01 11:53:25,0.15,6.58,0.00,25.23,27.30,30.38,14.06,49.45,999.05,2026.71,1653.31,1819.90,2066.55,599.91,581.18,55.25,0000 0000 0000 0000 000000
2017-04-01 11:58:26,0.18,6.59,0.00,24.92,27.30,30.33,14.14,49.52,999.04,2026.81,1651.78,1818.88,2065.48,599.95,581.98,55.30,0000 0000 0000 0000 000000
2017-04-01 12:03:28,0.16,6.60,0.00,24.78,27.30,30.32,14.10,49.55,999.04,2026.74,1650.18,1817.88,2064.30,599.94,582.18,55.35,0000 0000 0000 0000 000000
2017-04-01 12:08:29,0.18,6.61,0.00,24.86,27.30,30.30,14.09,49.52,999.05,2026.82,1648.58,1816.93,2063.12,599.88,581.97,55.40,0000 0000 0000 0000 000000
2017-04-01 12:13:31,0.12,6.61,0.00,25.16,27.30,30.35,14.07,49.46,999.04,2026.74,1647.26,1815.96,2062.02,599.68,581.16,55.46,0000 0000 0000 0000 000000
2017-04-01 12:18:32,0.19,6.62,0.00,25.26,27.30,30.38,14.06,49.50,999.04,2026.78,1645.79,1815.03,2060.96,599.74,581.07,55.51,0000 0000 0000 0000 000000
2017-04-01 12:23:33,0.16,6.63,0.00,24.93,27.30,30.34,14.09,49.55,999.04,2026.82,1644.28,1814.10,2059.90,600.00,581.89,55.56,0000 0000 0000 0000 000000
2017-04-01 12:28:35,0.16,6.64,0.00,24.79,27.30,30.31,14.07,49.61,999.05,2026.90,1642.83,1813.20,2058.91,599.93,582.26,55.61,0000 0000 0000 0000 000000
2017-04-01 12:33:36,0.16,6.65,0.00,24.84,27.30,30.29,14.18,49.57,999.04,2026.90,1641.42,1812.32,2057.82,599.87,582.10,55.66,0000 0000 0000 0000 000000
2017-04-01 12:38:37,0.14,6.65,0.00,25.17,27.30,30.36,14.13,49.56,999.04,2026.88,1640.10,1811.47,2056.86,599.99,581.47,55.71,0000 0000 0000 0000 000000
2017-04-01 12:43:38,0.17,6.66,0.00,25.19,27.30,30.38,14.12,49.55,999.04,2026.94,1638.79,1810.64,2055.86,599.94,581.35,55.76,0000 0000 0000 0000 000000
2017-04-01 12:48:39,0.15,6.67,0.00,24.89,27.30,30.33,14.14,49.70,999.05,2026.94,1637.16,1809.81,2054.84,599.90,581.86,55.81,0000 0000 0000 0000 000000
2017-04-01 12:53:40,0.14,6.68,0.00,24.80,27.30,30.31,14.10,49.66,999.06,2026.96,1635.73,1809.01,2053.89,599.81,582.04,55.86,0000 0000 0000 0000 000000